Temp
-15 -14 -13 -13 -13 -12 -12 -12 -11 -10 -10 -9 -9 -8 -8 -8 -8 -8 -8 -9 -9 -10 -9 -10 -10 -10 -10 -9 -10 -10 -10 -10 -9 -9 -9 -9 -9 -9 -9 -10 -10 -10 -9 -9 -10
-17 -16 -15 -14 -13 -13 -12 -12 -12 -11 -11 -10 -9 -9 -8 -8 -8 -8 -8 -9 -8 -9 -10 -10 -10 -10 -10 -10 -10 -10 -10 -10 -10 -10 -10 -10 -10 -10 -10 -10 -10 -10 -10 -10 -10
-15 -17 -16 -15 -14 -14 -13 -13 -12 -12 -11 -10 -10 -9 -9 -9 -8 -8 -8 -8 -8 -8 -9 -10 -10 -11 -12 -10 -10 -10 -10 -10 -10 -10 -10 -10 -10 -10 -10 -10 -10 -10 -10 -10 -10
-16 -15 -17 -16 -16 -15 -14 -13 -13 -13 -12 -11 -11 -10 -9 -9 -9 -9 -8 -9 -9 -8 -9 -9 -10 -11 -10 -10 -10 -10 -10 -10 -10 -10 -10 -10 -10 -10 -10 -10 -10 -10 -10 -10 -10
-17 -16 -15 -17 -17 -16 -15 -14 -14 -14 -13 -12 -11 -11 -10 -10 -10 -10 -9 -9 -8 -8 -8 -9 -10 -11 -10 -11 -11 -11 -10 -10 -11 -10 -10 -10 -10 -10 -10 -10 -10 -10 -10 -10 -10
-17 -16 -16 -16 -17 -18 -16 -15 -15 -14 -14 -12 -12 -11 -11 -10 -10 -10 -9 -9 -9 -9 -8 -8 -10 -11 -10 -11 -11 -10 -11 -11 -11 -11 -10 -11 -10 -10 -10 -10 -10 -10 -10 -10 -10
-18 -17 -16 -16 -16 -17 -18 -17 -16 -14 -14 -14 -13 -13 -11 -12 -11 -10 -10 -10 -9 -9 -9 -8 -10 -11 -11 -11 -11 -10 -11 -11 -11 -11 -11 -11 -10 -11 -10 -10 -10 -10 -10 -10 -10
-18 -18 -17 -16 -16 -17 -17 -18 -17 -16 -15 -14 -14 -13 -12 -12 -12 -11 -11 -11 -10 -9 -9 -9 -9 -11 -11 -11 -11 -11 -11 -11 -11 -11 -11 -11 -11 -10 -11 -10 -10 -10 -10 -10 -10
-18 -18 -18 -17 -17 -17 -17 -18 -17 -17 -16 -15 -14 -13 -12 -12 -12 -12 -11 -11 -10 -9 -9 -9 -9 -11 -11 -11 -11 -11 -11 -11 -11 -11 -11 -11 -11 -10 -11 -10 -10 -10 -10 -10 -10
-19 -18 -18 -18 -16 -16 -17 -17 -19 -18 -17 -17 -14 -14 -12 -12 -13 -13 -12 -12 -12 -12 -10 -10 -9 -10 -11 -11 -11 -11 -12 -12 -11 -11 -11 -11 -11 -11 -11 -10 -10 -10 -10 -10 -10
-18 -18 -19 -18 -17 -16 -17 -18 -17 -19 -19 -16 -15 -14 -12 -13 -14 -13 -13 -13 -13 -12 -11 -11 -11 -10 -12 -12 -11 -12 -12 -12 -11 -11 -11 -12 -11 -11 -11 -10 -10 -10 -10 -10 -10
-20 -20 -20 -20 -18 -17 -17 -16 -17 -16 -17 -16 -15 -15 -14 -14 -14 -13 -13 -13 -13 -13 -12 -11 -10 -13 -13 -13 -12 -12 -12 -12 -11 -11 -12 -12 -11 -11 -11 -11 -11 -11 -11 -10 -10
-19 -19 -19 -19 -18 -18 -17 -18 -18 -18 -18 -18 -17 -15 -15 -15 -14 -14 -14 -13 -14 -14 -13 -12 -12 -13 -13 -13 -12 -12 -12 -12 -11 -12 -12 -11 -11 -11 -11 -11 -11 -11 -11 -11 -11
-19 -19 -18 -19 -19 -18 -17 -18 -18 -18 -18 -18 -18 -17 -16 -16 -15 -15 -15 -14 -14 -14 -14 -14 -14 -14 -13 -13 -13 -13 -12 -12 -12 -13 -12 -12 -11 -11 -11 -11 -11 -11 -11 -11 -11
-19 -19 -19 -18 -18 -17 -18 -18 -18 -18 -18 -18 -18 -18 -17 -17 -15 -15 -15 -14 -14 -14 -14 -13 -14 -14 -13 -13 -14 -14 -13 -13 -13 -13 -12 -12 -11 -11 -11 -11 -11 -11 -11 -11 -11
-19 -19 -18 -18 -18 -18 -18 -19 -19 -19 -18 -18 -17 -17 -19 -18 -16 -16 -15 -15 -15 -15 -15 -14 -14 -15 -14 -14 -14 -14 -14 -13 -13 -13 -12 -12 -12 -11 -11 -11 -11 -11 -11 -11 -11
-20 -20 -19 -18 -18 -18 -18 -19 -19 -19 -18 -17 -16 -16 -17 -18 -17 -16 -15 -15 -14 -14 -14 -14 -14 -14 -14 -15 -14 -14 -14 -14 -14 -13 -12 -13 -12 -11 -12 -11 -12 -12 -12 -11 -12
-20 -19 -19 -18 -19 -19 -19 -19 -19 -18 -17 -16 -16 -16 -17 -17 -17 -17 -16 -16 -15 -15 -15 -14 -14 -14 -14 -15 -14 -14 -14 -14 -14 -14 -13 -13 -12 -11 -12 -12 -12 -12 -12 -12 -12
-20 -20 -20 -19 -19 -19 -19 -18 -17 -17 -17 -17 -17 -18 -18 -17 -17 -17 -16 -15 -16 -15 -15 -15 -15 -15 -15 -15 -15 -15 -15 -15 -15 -14 -14 -13 -12 -12 -12 -13 -13 -13 -13 -13 -13
-20 -20 -19 -19 -19 -19 -18 -17 -17 -17 -18 -17 -17 -17 -16 -16 -16 -17 -16 -15 -16 -16 -16 -16 -16 -15 -15 -15 -15 -15 -15 -15 -15 -14 -14 -13 -13 -12 -13 -13 -13 -13 -13 -13 -13
-19 -19 -19 -19 -19 -19 -17 -16 -17 -18 -18 -18 -17 -17 -16 -16 -17 -17 -16 -16 -16 -16 -16 -16 -16 -16 -16 -15 -15 -15 -15 -15 -15 -15 -14 -14 -13 -13 -12 -13 -13 -13 -13 -14 -14
-20 -19 -19 -19 -19 -19 -17 -17 -18 -19 -17 -18 -18 -18 -18 -17 -17 -17 -16 -16 -16 -17 -17 -17 -17 -17 -16 -16 -17 -16 -16 -16 -16 -15 -15 -15 -13 -13 -13 -13 -13 -14 -14 -14 -14
-19 -19 -19 -19 -19 -18 -18 -18 -18 -18 -17 -18 -18 -18 -18 -18 -18 -17 -18 -17 -18 -18 -18 -18 -18 -17 -17 -17 -17 -17 -17 -17 -16 -16 -15 -15 -12 -13 -13 -13 -13 -14 -14 -14 -14
-20 -20 -19 -19 -19 -18 -18 -18 -18 -18 -18 -18 -19 -18 -18 -18 -18 -18 -18 -18 -18 -17 -18 -20 -19 -19 -17 -16 -17 -17 -16 -16 -16 -16 -15 -15 -13 -14 -14 -14 -14 -15 -15 -15 -15
-21 -20 -19 -20 -19 -18 -19 -19 -18 -17 -18 -18 -18 -17 -18 -18 -19 -18 -18 -19 -18 -18 -19 -19 -18 -18 -16 -19 -18 -17 -17 -17 -17 -16 -17 -15 -15 -13 -15 -15 -15 -14 -14 -14 -15
-21 -20 -20 -19 -19 -19 -18 -19 -18 -18 -18 -17 -17 -17 -18 -17 -18 -18 -19 -18 -18 -18 -19 -18 -18 -17 -17 -19 -19 -17 -16 -16 -16 -16 -16 -15 -15 -13 -15 -15 -15 -15 -15 -15 -16
-21 -20 -20 -20 -19 -19 -18 -18 -18 -18 -18 -18 -18 -18 -18 -18 -19 -19 -19 -19 -18 -19 -18 -18 -18 -19 -18 -18 -19 -18 -14 -16 -16 -15 -16 -16 -13 -15 -16 -16 -16 -16 -15 -15 -16
Height
5638 5649 5660 5673 5684 5697 5707 5716 5728 5737 5746 5752 5757 5764 5770 5776 5781 5785 5790 5796 5799 5804 5808 5812 5816 5821 5826 5831 5835 5841 5843 5847 5851 5853 5857 5859 5862 5865 5868 5870 5873 5874 5876 5878 5879
5627 5639 5649 5661 5672 5685 5696 5706 5718 5728 5737 5744 5751 5757 5764 5770 5776 5781 5785 5790 5794 5798 5803 5807 5812 5817 5821 5826 5831 5835 5841 5845 5848 5848 5856 5857 5861 5862 5866 5869 5871 5873 5876 5877 5878
5621 5630 5639 5650 5661 5673 5685 5695 5707 5720 5727 5735 5743 5751 5757 5763 5770 5773 5778 5785 5789 5794 5797 5802 5806 5811 5817 5822 5827 5833 5838 5839 5845 5851 5854 5856 5860 5861 5864 5867 5870 5873 5875 5875 5877
5609 5621 5632 5642 5652 5663 5675 5686 5697 5710 5717 5725 5734 5743 5749 5757 5765 5768 5773 5778 5783 5788 5791 5796 5803 5806 5811 5820 5825 5830 5832 5838 5843 5846 5851 5855 5858 5859 5862 5866 5869 5872 5873 5874 5875
5599 5610 5622 5635 5644 5654 5666 5676 5687 5700 5712 5717 5724 5734 5742 5749 5757 5762 5766 5771 5777 5782 5787 5791 5796 5802 5808 5814 5821 5825 5829 5835 5839 5843 5846 5852 5854 5857 5861 5863 5866 5869 5871 5873 5875
5592 5600 5612 5624 5638 5646 5657 5668 5677 5689 5699 5707 5717 5725 5734 5743 5749 5756 5761 5766 5771 5776 5781 5785 5790 5794 5801 5807 5814 5821 5825 5831 5834 5839 5843 5847 5852 5854 5859 5861 5863 5866 5868 5870 5872
5582 5594 5605 5613 5626 5640 5649 5661 5669 5681 5690 5699 5708 5715 5726 5734 5743 5749 5754 5759 5765 5769 5774 5779 5783 5789 5793 5802 5808 5815 5820 5825 5830 5833 5838 5844 5848 5853 5856 5859 5861 5863 5866 5868 5869
5577 5585 5593 5603 5617 5628 5641 5652 5662 5671 5679 5691 5699 5708 5718 5727 5736 5742 5748 5753 5758 5763 5768 5773 5779 5784 5789 5794 5802 5807 5815 5818 5825 5829 5833 5838 5844 5848 5852 5856 5859 5860 5863 5865 5867
5568 5576 5582 5595 5604 5616 5628 5642 5654 5663 5673 5681 5689 5700 5709 5721 5730 5735 5740 5747 5751 5756 5761 5767 5772 5777 5783 5789 5797 5802 5808 5814 5819 5825 5828 5834 5840 5844 5848 5852 5855 5857 5860 5862 5864
5558 5569 5578 5586 5595 5608 5617 5630 5641 5652 5660 5668 5680 5688 5706 5717 5723 5728 5734 5740 5746 5750 5754 5761 5766 5770 5777 5782 5789 5797 5805 5808 5815 5822 5827 5830 5835 5841 5843 5848 5851 5854 5856 5859 5861
5552 5561 5571 5582 5590 5599 5607 5614 5627 5638 5655 5672 5684 5688 5693 5707 5714 5721 5727 5733 5739 5744 5749 5755 5762 5765 5770 5778 5786 5796 5802 5807 5811 5818 5822 5827 5830 5834 5838 5843 5847 5850 5852 5855 5857
5546 5557 5567 5573 5581 5593 5600 5614 5633 5649 5650 5657 5670 5676 5687 5696 5706 5711 5719 5727 5733 5739 5743 5748 5756 5763 5770 5776 5782 5787 5793 5798 5805 5813 5817 5819 5826 5830 5833 5838 5842 5845 5848 5850 5853
5541 5552 5561 5570 5575 5585 5598 5606 5616 5629 5638 5650 5659 5668 5676 5687 5697 5706 5713 5721 5729 5733 5739 5744 5752 5758 5764 5771 5774 5780 5789 5794 5800 5806 5809 5815 5819 5824 5830 5834 5836 5839 5843 5846 5849
5534 5546 5554 5560 5570 5580 5590 5596 5607 5618 5626 5637 5647 5659 5668 5677 5687 5698 5703 5714 5723 5730 5733 5741 5748 5752 5760 5769 5774 5779 5784 5786 5793 5799 5803 5806 5811 5818 5822 5827 5829 5833 5837 5840 5844
5527 5538 5547 5560 5568 5578 5586 5589 5598 5609 5614 5627 5637 5649 5658 5670 5683 5690 5697 5707 5717 5724 5731 5737 5740 5744 5752 5761 5766 5772 5777 5780 5787 5790 5793 5799 5803 5812 5815 5819 5825 5829 5832 5834 5837
5520 5532 5540 5549 5560 5568 5571 5579 5586 5593 5596 5614 5627 5638 5651 5664 5673 5683 5693 5701 5710 5715 5723 5730 5737 5743 5752 5757 5761 5765 5770 5774 5780 5783 5785 5791 5796 5801 5806 5815 5819 5822 5826 5827 5829
5512 5526 5535 5544 5557 5562 5565 5568 5576 5579 5600 5609 5624 5637 5649 5655 5666 5675 5686 5691 5699 5707 5716 5722 5727 5735 5743 5749 5754 5758 5764 5767 5771 5773 5776 5783 5787 5793 5802 5808 5813 5815 5818 5820 5821
5509 5519 5529 5538 5546 5551 5556 5566 5570 5584 5597 5607 5619 5630 5637 5645 5656 5669 5675 5682 5695 5705 5711 5716 5723 5728 5734 5739 5749 5753 5757 5762 5764 5768 5775 5780 5783 5790 5798 5799 5803 5806 5808 5811 5812
5503 5513 5521 5529 5537 5544 5549 5555 5574 5581 5592 5599 5609 5619 5627 5638 5649 5656 5669 5680 5688 5696 5702 5706 5712 5722 5729 5734 5742 5746 5747 5755 5758 5762 5767 5773 5780 5783 5789 5793 5794 5797 5801 5801 5802
5496 5508 5515 5524 5532 5537 5544 5556 5565 5573 5580 5590 5601 5610 5620 5633 5641 5651 5661 5673 5680 5690 5695 5701 5706 5713 5721 5726 5732 5739 5745 5749 5751 5756 5759 5765 5769 5775 5781 5785 5787 5789 5790 5791 5792
5488 5500 5507 5519 5525 5527 5541 5553 5560 5565 5575 5584 5595 5605 5617 5625 5636 5644 5655 5662 5671 5682 5685 5690 5696 5704 5711 5718 5726 5731 5735 5740 5745 5750 5752 5756 5762 5768 5772 5776 5778 5780 5782 5783 5784
5479 5486 5497 5507 5510 5521 5532 5544 5552 5560 5570 5580 5587 5598 5609 5618 5625 5637 5646 5658 5664 5671 5675 5682 5685 5694 5704 5711 5715 5722 5729 5732 5735 5743 5742 5747 5755 5763 5762 5764 5768 5772 5774 5774 5775
5471 5484 5491 5497 5500 5517 5527 5536 5546 5554 5563 5571 5582 5592 5601 5610 5618 5630 5640 5645 5651 5660 5669 5674 5677 5683 5692 5700 5705 5710 5718 5723 5729 5729 5731 5738 5749 5755 5756 5757 5758 5762 5764 5765 5766
5463 5469 5476 5482 5502 5511 5522 5530 5538 5547 5556 5565 5575 5584 5594 5601 5612 5620 5627 5634 5643 5651 5656 5661 5669 5677 5685 5697 5701 5705 5712 5716 5718 5719 5730 5730 5742 5741 5746 5748 5748 5748 5750 5753 5753
5453 5460 5464 5474 5488 5503 5514 5528 5533 5541 5551 5559 5568 5577 5587 5594 5604 5611 5618 5626 5633 5639 5645 5650 5660 5669 5677 5679 5682 5689 5696 5699 5701 5711 5709 5723 5724 5736 5735 5735 5733 5734 5738 5739 5741
5444 5453 5459 5475 5489 5498 5504 5517 5529 5538 5547 5556 5562 5569 5578 5586 5599 5604 5609 5617 5624 5629 5633 5641 5651 5659 5661 5668 5671 5674 5680 5690 5693 5699 5698 5710 5710 5730 5722 5719 5721 5726 5727 5728 5730
5435 5448 5458 5465 5478 5487 5501 5516 5527 5534 5544 5551 5559 5567 5574 5580 5589 5596 5603 5612 5620 5624 5628 5635 5642 5649 5654 5658 5662 5661 5680 5676 5684 5689 5693 5692 5709 5712 5712 5705 5708 5711 5714 5715 5714
Wind_Speed
85 84 82 78 75 71 69 66 63 61 60 56 53 51 48 42 40 36 34 33 35 38 36 33 33 33 36 34 34 34 37 35 34 32 29 27 23 20 18 18 16 15 15 13 10
83 84 84 82 78 74 72 69 65 64 61 61 57 53 52 46 42 38 37 34 34 33 41 38 29 31 41 39 38 39 38 35 34 37 29 28 25 23 20 18 17 17 14 13 11
82 82 81 81 80 77 75 71 69 65 64 64 60 58 54 50 45 42 38 36 34 32 34 39 38 26 40 41 40 40 38 40 35 31 30 28 25 24 21 20 19 18 16 14 12
59 79 81 78 78 77 75 73 68 65 67 65 63 61 55 52 49 46 41 39 35 32 33 35 41 33 38 40 40 41 41 38 33 34 32 30 28 26 24 20 19 18 18 16 14
49 68 78 80 73 73 75 73 70 61 46 67 65 62 60 55 54 47 43 40 37 33 35 37 36 41 34 39 45 42 42 37 35 36 33 31 31 28 25 24 22 21 19 16 14
39 62 70 70 80 68 70 72 68 64 65 66 62 63 61 57 55 50 46 43 41 37 36 36 39 37 35 45 48 45 41 39 38 36 33 33 31 30 26 26 24 22 21 17 15
32 48 62 56 75 81 68 68 66 67 54 67 63 61 62 56 54 52 50 44 43 40 37 40 41 41 39 46 49 49 45 42 39 38 35 33 33 30 28 29 27 24 22 19 17
34 54 52 51 67 81 80 67 64 70 65 54 57 61 60 58 54 52 50 46 46 43 41 40 39 43 44 47 51 47 46 45 43 41 37 34 33 33 30 29 28 26 24 22 20
55 49 36 54 50 78 79 72 66 67 63 65 63 57 67 60 56 53 50 45 46 45 42 40 40 46 50 50 52 50 50 48 45 45 38 35 33 33 31 31 30 28 26 25 23
71 62 45 50 57 55 76 79 66 67 74 59 68 63 65 58 55 52 52 47 46 43 42 41 39 42 48 51 54 51 48 47 46 41 36 36 33 33 32 32 32 30 27 26 25
70 69 53 45 46 47 75 80 79 68 67 65 59 68 67 60 54 54 54 50 48 47 44 43 41 41 44 47 46 42 44 45 41 38 38 36 34 37 35 36 34 32 30 29 28
56 52 47 48 37 43 52 66 71 70 71 74 72 65 65 61 61 55 55 53 52 49 47 45 43 38 39 40 40 45 45 46 42 40 39 39 38 37 38 37 35 34 33 33 31
49 48 43 42 42 39 42 60 65 73 68 66 65 67 65 60 63 57 53 55 51 48 49 46 43 41 42 43 46 47 43 43 42 40 42 40 37 38 38 39 38 37 36 35 32
46 44 47 45 44 44 44 64 63 68 70 71 67 60 62 59 60 59 55 55 53 51 50 46 44 42 43 42 40 40 41 45 42 39 40 37 40 37 40 40 40 40 39 37 35
50 51 51 49 42 41 52 60 66 66 73 71 69 66 59 57 58 59 55 59 57 51 50 50 48 48 47 44 43 43 42 43 40 41 42 40 43 37 39 39 39 37 38 39 38
48 54 52 45 42 49 61 61 70 69 77 76 74 71 60 58 58 56 58 55 55 53 52 50 47 45 44 43 45 45 45 45 41 41 44 43 43 44 42 34 34 37 37 38 38
53 56 53 44 47 37 57 68 67 72 65 70 67 69 69 62 62 61 61 61 60 60 57 55 54 50 48 46 48 48 46 45 44 47 49 47 48 48 38 38 36 33 35 38 39
58 51 53 51 55 44 41 61 72 64 63 62 63 64 70 73 64 55 59 59 60 54 52 56 57 52 51 50 49 48 47 45 46 47 44 40 47 42 33 35 35 39 42 40 40
55 52 48 50 41 45 47 53 49 46 61 65 66 66 68 72 71 68 63 63 58 57 57 57 57 51 48 49 48 49 48 43 46 47 46 46 44 44 41 38 41 43 44 43 44
49 48 43 47 43 47 45 45 44 43 57 58 60 65 64 60 72 71 70 69 62 57 55 56 55 53 50 49 49 49 45 45 47 46 47 47 47 45 41 37 35 33 34 36 38
58 56 55 50 48 56 47 42 44 44 45 47 51 57 60 61 65 73 73 73 69 58 57 59 62 57 53 52 49 49 49 48 47 47 47 49 49 47 44 39 37 35 35 35 36
63 59 56 57 57 52 50 43 45 45 44 46 48 47 54 50 58 59 65 70 68 60 57 57 61 59 56 52 52 48 46 45 46 47 49 48 51 47 46 44 39 38 36 36 35
59 60 63 60 62 54 49 49 47 47 44 43 42 44 44 53 47 48 58 61 65 62 54 55 57 57 57 55 54 55 54 53 51 52 53 51 50 47 46 45 45 42 40 40 40
63 52 64 68 58 55 54 53 46 44 45 45 44 46 46 48 52 45 48 59 65 67 65 56 54 57 61 54 53 54 51 51 52 53 52 55 51 50 46 46 47 48 48 46 46
59 66 62 62 64 59 57 52 46 46 46 43 45 49 49 50 50 54 50 51 53 53 51 53 59 60 59 55 60 62 59 54 58 58 58 57 55 50 49 51 54 56 56 55 53
66 63 66 55 58 58 59 58 48 46 43 42 46 47 49 49 45 48 55 50 51 53 59 64 60 63 65 58 61 65 65 64 65 63 66 62 63 46 58 60 60 59 60 58 55
71 73 72 68 62 62 59 54 46 47 47 44 41 41 43 42 39 41 45 48 39 48 51 50 51 57 63 63 66 71 51 62 58 58 59 59 41 49 54 62 62 62 63 65 65
Wind_Direction
208 207 208 210 211 210 209 210 211 212 214 212 211 210 210 211 215 218 219 218 223 222 220 236 227 218 212 207 203 205 203 201 204 196 194 198 201 202 206 212 218 214 217 221 224
215 209 208 209 210 210 209 208 210 211 215 216 212 211 210 210 211 216 218 220 222 222 222 223 241 262 211 207 204 204 204 200 206 206 203 203 204 206 210 214 219 221 217 226 231
224 217 211 209 210 209 209 206 208 210 216 214 215 211 210 213 211 216 214 219 219 220 223 224 229 245 215 209 204 205 204 208 208 209 209 210 209 213 213 213 220 224 220 220 226
218 225 220 213 210 210 208 207 206 210 214 215 215 213 211 212 218 215 213 216 217 218 221 223 220 211 219 210 210 207 206 211 207 210 211 215 214 213 214 215 216 220 223 223 219
222 218 224 217 217 212 209 208 206 207 213 214 215 215 214 214 219 218 214 214 216 213 221 226 220 219 224 212 212 208 210 207 211 213 213 216 218 217 215 217 217 217 225 225 227
211 212 213 218 220 216 211 209 207 206 204 214 216 215 218 215 218 218 215 215 216 215 216 227 224 220 219 211 206 212 211 209 211 215 215 216 219 221 218 221 220 220 225 225 223
198 202 209 209 219 220 214 211 208 205 198 212 214 217 218 217 218 216 215 217 216 211 216 224 227 215 218 202 204 211 209 208 214 215 216 219 223 223 224 225 223 223 226 228 225
207 203 206 208 222 215 217 213 212 208 212 206 217 216 217 216 217 215 217 218 216 212 217 222 227 215 215 206 209 209 211 211 216 217 215 217 219 224 224 229 229 227 228 230 231
217 211 217 215 219 212 215 212 215 212 205 211 204 210 217 215 215 215 217 218 216 214 215 219 222 216 215 215 209 208 212 215 213 218 216 218 220 226 225 228 230 230 231 232 234
231 230 198 215 208 223 211 213 213 213 212 208 207 209 208 215 216 217 218 217 216 214 212 215 217 212 215 210 209 214 214 213 214 220 222 223 221 226 228 231 233 232 232 233 235
232 230 231 203 213 218 218 211 212 210 210 211 205 209 208 212 215 220 221 220 217 212 210 211 215 211 203 207 208 212 216 220 219 222 227 229 226 227 230 232 233 236 237 239 238
227 233 234 239 210 217 223 219 217 219 210 207 206 212 210 210 212 216 218 220 217 214 211 208 214 209 210 211 208 212 214 220 221 224 228 229 229 233 233 236 236 237 240 244 245
219 227 225 231 232 215 223 214 213 214 215 209 210 211 209 210 213 218 218 220 219 217 213 212 211 207 210 211 212 214 215 222 223 222 228 230 232 236 238 240 242 243 244 246 249
207 200 209 224 234 218 223 210 212 214 211 214 209 213 214 209 212 216 214 218 220 218 217 215 212 211 215 214 214 219 216 221 220 222 227 230 235 235 235 237 241 246 248 250 252
202 204 208 230 231 216 218 215 211 211 214 214 213 211 213 216 211 216 215 216 219 221 222 216 216 211 211 213 214 218 220 224 222 224 228 230 237 232 238 240 243 246 251 253 255
202 205 205 204 217 211 212 209 210 211 211 214 215 213 211 213 213 215 217 215 218 218 219 222 222 222 219 217 219 219 221 226 227 230 232 233 235 236 238 243 246 249 252 253 255
195 204 207 208 219 208 214 209 211 212 215 216 217 217 213 209 211 215 217 215 217 216 218 222 221 220 219 222 222 223 224 225 229 229 233 232 237 243 246 250 251 252 256 256 256
197 204 207 203 223 225 224 215 211 219 219 218 222 218 214 212 210 217 216 216 217 221 222 225 225 222 220 221 227 229 229 229 234 235 237 242 243 247 250 254 255 253 255 258 260
194 197 204 207 209 221 223 221 216 212 216 215 220 217 219 215 212 212 218 222 220 220 221 223 226 225 227 229 229 231 229 230 235 237 240 242 248 253 253 255 259 260 259 262 265
186 188 203 207 202 216 219 210 212 212 213 214 221 221 221 221 218 213 216 221 218 223 224 228 229 229 227 229 230 232 233 236 239 241 245 249 253 255 259 266 258 259 261 261 263
184 194 204 205 202 215 211 202 207 216 216 218 219 221 222 227 224 219 220 218 221 222 221 226 228 231 232 231 236 236 236 240 243 245 253 257 259 261 264 263 262 262 264 266 268
184 201 201 201 210 212 207 209 214 218 216 218 218 219 222 226 224 224 227 224 220 220 220 226 233 233 237 237 237 238 239 242 245 247 252 259 256 261 262 260 258 262 265 263 261
192 197 205 211 214 209 208 212 215 218 217 214 214 214 218 221 222 223 227 226 223 225 225 225 227 234 236 238 241 242 240 242 245 248 248 250 253 256 261 266 268 266 265 266 267
195 198 203 207 209 214 211 213 212 212 218 220 218 215 217 216 216 221 220 225 229 229 222 222 230 237 240 242 247 247 246 247 248 248 255 259 259 258 261 265 268 269 268 266 267
202 200 211 207 206 210 214 216 214 211 211 213 209 213 211 214 216 221 224 223 229 229 231 236 234 234 237 240 243 241 241 243 247 247 250 251 256 255 257 260 261 262 265 267 267
206 203 211 208 212 215 215 211 213 210 209 199 198 203 202 210 215 220 218 220 224 230 231 235 240 240 237 235 239 242 243 244 247 247 251 254 255 264 259 258 261 265 266 268 270
209 205 210 215 213 213 214 212 210 205 199 198 202 205 199 204 207 216 217 221 228 228 233 234 237 238 239 242 246 248 250 253 252 251 255 256 264 260 259 263 263 263 264 266 267